This is the latest recevied weather packets stored in our database for station/object F6BIJ-13. If no packets are shown the sender has not sent any weather packets the latest 10 day(s).
| Time | Temp. | Humidity | Pressure | Rain* | Wind** | Luminosity | Snow |
|---|---|---|---|---|---|---|---|
| 1777493557 | 16.67° C | 67% | 1016.7 hPa | 0 mm | - | - | - |
| 1777493197 | 17.78° C | 66% | 1016.6 hPa | 0 mm | - | - | - |
| 1777492837 | 17.22° C | 67% | 1016.5 hPa | 0 mm | - | - | - |
| 1777492476 | 16.67° C | 67% | 1016.5 hPa | 0 mm | - | - | - |
| 1777492117 | 16.67° C | 66% | 1016.4 hPa | 0 mm | - | - | - |
| 1777491757 | 17.78° C | 67% | 1016.4 hPa | 0 mm | - | - | - |
| 1777491397 | 18.33° C | 66% | 1016.3 hPa | 0 mm | - | - | - |
| 1777491036 | 17.78° C | 66% | 1016.2 hPa | 0 mm | - | - | - |
| 1777490677 | 18.33° C | 65% | 1016.1 hPa | 0 mm | - | - | - |
| 1777490317 | 17.78° C | 66% | 1016 hPa | 0 mm | - | - | - |
| 1777489957 | 17.78° C | 66% | 1015.8 hPa | 0 mm | - | - | - |
| 1777489597 | 17.22° C | 67% | 1015.9 hPa | 0 mm | - | - | - |
| 1777489237 | 17.78° C | 65% | 1015.7 hPa | 0 mm | - | - | - |
| 1777488877 | 18.33° C | 66% | 1015.7 hPa | 0 mm | - | - | - |
| 1777488517 | 17.78° C | 65% | 1015.7 hPa | 0 mm | - | - | - |
| 1777488157 | 18.33° C | 64% | 1015.6 hPa | 0 mm | - | - | - |
| 1777487797 | 17.78° C | 63% | 1015.5 hPa | 0 mm | - | - | - |
| 1777487437 | 18.33° C | 63% | 1015.4 hPa | 0 mm | - | - | - |
| 1777487077 | 18.89° C | 63% | 1015.2 hPa | 0 mm | - | - | - |
| 1777486716 | 18.33° C | 62% | 1015.3 hPa | 0 mm | - | - | - |
| 1777486357 | 19.44° C | 61% | 1015.2 hPa | 0 mm | - | - | - |
| 1777485997 | 19.44° C | 61% | 1015.1 hPa | 0 mm | - | - | - |
| 1777485637 | 19.44° C | 60% | 1015 hPa | 0 mm | - | - | - |
| 1777485277 | 19.44° C | 60% | 1014.9 hPa | 0 mm | - | - | - |
| 1777484916 | 19.44° C | 61% | 1014.8 hPa | 0 mm | - | - | - |
* Rain latest 24 hours (hover to see other rain measurements)
** Current wind speed in m/s (hover to see current wind gust speed)